Home > Weather > Sopron > Past weeks

Flag for Hungary Past Weather in Sopron, Hungary — Yesterday and Last 2 Weeks

Now
78 °F

Warm.


Feels Like: 78 °F
Forecast: 57 / 82 °F
Wind: 3 mph from North

Location: Eisenstadt

Current Time: Jun 28, 2016 at 5:18:33 PM

Latest Report: Jun 28, 2016 at 4:00 PM


Visibility: N/A

Pressure: 29.99 "Hg

Humidity: 40%

Dew Point: 51 °F

Location of SopronLocation

Past Weather in Sopron — Graph

°F

Sopron Temperature Yesterday

Maximum temperature yesterday: 71 °F (at 4:00 PM)
Minimum temperature yesterday: 61 °F (at 9:00 AM)
Average temperature yesterday: 66 °F

High & Low Weather Summary for the Past Weeks

 TemperatureHumidityPressure
High91 °F (Jun 24, 4:00 PM)94% (Jun 21, 6:00 AM)30.26 "Hg (Jun 21, 6:00 AM)
Low55 °F (Jun 21, 6:00 AM)34% (Jun 23, 5:00 PM)29.47 "Hg (Jun 17, 5:00 AM)
Average69 °F68%29.93 "Hg
* Reported Jun 13 4:00 PM — Jun 28 4:00 PM, Sopron, Weather by CustomWeather, © 2016

Note: Actual official high and low records may vary slightly from our data, if they occured in-between our weather recording intervals... More about our weather records

Advertising

Sopron Weather History for the Previous 24 Hours

Scroll right to see more
 ConditionsComfort  
Time TempWeatherWind HumidityBarometerVisibility
4:00 PM
Tue, Jun 28
78 °FWarm.3 mph40%29.99 "HgN/A
3:00 PM77 °FPleasantly warm.5 mph39%30.00 "HgN/A
2:00 PM76 °FPassing clouds.6 mph40%30.02 "Hg16 mi
1:00 PM74 °FMild.5 mph42%30.03 "HgN/A
12:00 PM74 °FMild.5 mph44%30.05 "HgN/A
11:00 AM72 °FPassing clouds.6 mph48%30.04 "Hg16 mi
10:00 AM70 °FMild.6 mph52%30.05 "HgN/A
9:00 AM68 °FMild.6 mph56%30.05 "HgN/A
8:00 AM66 °FSunny.3 mph61%30.05 "Hg16 mi
7:00 AM63 °FSunny.5 mph64%30.05 "Hg12 mi
6:00 AM62 °FSunny.6 mph65%30.05 "Hg12 mi
5:00 AM62 °FSunny.6 mph67%30.05 "Hg12 mi
4:00 AM61 °FClear.1 mph74%30.05 "Hg12 mi
3:00 AM61 °FCool.3 mph74%30.05 "HgN/A
2:00 AM61 °FOvercast.1 mph75%30.06 "Hg9 mi
1:00 AM62 °FCool.3 mph72%30.06 "HgN/A
12:00 AM62 °FCool.5 mph69%30.06 "HgN/A
11:00 PM
Mon, Jun 27
62 °FPassing clouds.3 mph67%30.06 "Hg12 mi
10:00 PM64 °FMild.2 mph74%30.04 "HgN/A
9:00 PM65 °FMild.3 mph67%30.03 "HgN/A
8:00 PM65 °FPartly sunny.2 mph67%30.03 "Hg12 mi
7:00 PM67 °FMild.6 mph62%30.03 "HgN/A
6:00 PM69 °FMild.6 mph59%30.03 "HgN/A
5:00 PM69 °FPartly sunny.9 mph61%30.03 "Hg12 mi
Weather by CustomWeather, © 2016

See weather overviewHow to use our weather pages